Location: Godiavel Galaoual
(15.2485°N, 12.6604°W)
Time: 00:21:45
(UTC+00:00)

Transit 4A - Pass Details

Date: 14 June 2021
Orbit: 872 x 972 km, 66.8° (Epoch: 29 July)

Event Time Altitude Azimuth Distance (km) Brightness Sun altitude
Rises 10:21:19 0° 196° (SSW) 3,616 10.8 53.9°
Reaches altitude 10° 10:23:53 10° 195° (SSW) 2,659 10.2 54.5°
Maximum altitude 10:30:04 76° 110° (ESE) 957 9.5 55.9°
Drops below altitude 10° 10:36:05 10° 25° (NNE) 2,591 10.7 57.2°
Sets 10:38:33 0° 24° (NNE) 3,519 11.2 57.8°
